Flag for Russia Weather past 2 weeks in Novorossiysk, Russia

Now
54 °F

Sunny.


Feels Like: 53 °F
Forecast: 48 / 63 °F
Wind: 3 mph from Southeast

Location: Anapa / Vitiazevo

Current Time: Mar 27, 2015 at 8:42:58 AM

Latest Report: Mar 27, 2015 at 8:00 AM


Visibility: 10 mi

Pressure: 30.01 "Hg

Humidity: 63%

Dew point: 41 °F

Location of NovorossiyskLocation

Historic Weather in Novorossiysk — Graph

°F

Novorossiysk temperature yesterday

Maximum temperature yesterday: 66 °F (at 3:00 PM)
Minimum temperature yesterday: 34 °F (at 5:00 AM)
Average temperature yesterday: 51 °F

Past Weeks' High & Low Weather Summary

 TemperatureHumidityPressure
High66 °F (Mar 26, 3:00 PM)100% (Mar 21, 5:00 AM)30.36 "Hg (Mar 21, 5:00 AM)
Low27 °F (Mar 24, 11:00 PM)24% (Mar 16, 2:00 PM)29.77 "Hg (Mar 12, 8:00 PM)
Average45 °F77%30.13 "Hg
* Reported Mar 12 7:30 AM — Mar 27 7:30 AM, Novorossiysk, Weather by CustomWeather, © 2015

Note: Actual official high and low records may vary slightly from our data, if they occured in-between our weather recording intervals... More about our weather records

Advertising

Novorossiysk weather history for previous 24 hours

 ConditionsComfort  
Time TempWeatherWind HumidityBarometerVisibility
7:30 AM
Fri, Mar 27
46 °FSunny.1 mph71%30.01 "Hg10 mi
7:00 AM43 °FClear.3 mph71%30.01 "Hg10 mi
6:00 AM43 °FClear.8 mph71%30.01 "Hg10 mi
5:00 AM34 °FClear.3 mph93%30.04 "Hg10 mi
4:00 AM34 °FClear.3 mph93%30.04 "Hg10 mi
3:00 AM36 °FClear.3 mph87%30.07 "Hg10 mi
2:00 AM39 °FClear.3 mph87%30.07 "Hg10 mi
1:00 AM39 °FClear.3 mph87%30.09 "Hg10 mi
12:00 AM43 °FClear.1 mph81%30.09 "Hg10 mi
11:00 PM
Thu, Mar 26
50 °FClear.8 mph71%30.09 "Hg10 mi
10:00 PM46 °FPassing clouds.3 mph76%30.12 "HgN/A
9:00 PM48 °FClear.8 mph76%30.12 "Hg10 mi
8:00 PM48 °FClear.8 mph71%30.12 "Hg10 mi
7:30 PM48 °FPassing clouds.3 mph76%30.15 "HgN/A
7:00 PM48 °FSunny.6 mph82%30.15 "Hg10 mi
6:30 PM52 °FPassing clouds.6 mph72%30.15 "HgN/A
6:00 PM54 °FSunny.6 mph72%30.15 "Hg10 mi
5:30 PM54 °FSunny.8 mph72%30.18 "Hg10 mi
5:00 PM57 °FSunny.10 mph59%30.18 "Hg10 mi
4:30 PM61 °FSunny.13 mph52%30.18 "Hg10 mi
4:00 PM64 °FSunny.15 mph37%30.18 "Hg10 mi
3:30 PM64 °FSunny.15 mph40%30.18 "Hg10 mi
3:00 PM66 °FSunny.15 mph37%30.15 "Hg10 mi
2:30 PM64 °FPassing clouds.15 mph40%30.15 "HgN/A
2:00 PM64 °FSunny.15 mph37%30.18 "Hg10 mi
1:30 PM64 °FSunny.17 mph43%30.18 "Hg10 mi
1:00 PM61 °FPassing clouds.8 mph59%30.18 "HgN/A
12:30 PM57 °FSunny.8 mph67%30.21 "Hg10 mi
12:00 PM55 °FSunny.10 mph72%30.21 "Hg10 mi
11:30 AM55 °FSunny.10 mph72%30.24 "Hg10 mi
11:00 AM55 °FSunny.8 mph67%30.24 "Hg10 mi
10:30 AM55 °FPassing clouds.3 mph63%30.24 "HgN/A
10:00 AM54 °FPassing clouds.3 mph63%30.24 "HgN/A
9:30 AM54 °FSunny.1 mph63%30.24 "Hg10 mi
9:00 AM52 °FPassing clouds.3 mph67%30.24 "HgN/A
8:30 AM50 °FSunny.8 mph76%30.24 "Hg10 mi
8:00 AM46 °FSunny.8 mph87%30.24 "Hg10 mi
Weather by CustomWeather, © 2015

See weather overviewHow to use our weather pages